TimeEDT,TemperatureF,Dew PointF,Humidity,Sea Level PressureIn,VisibilityMPH,Wind Direction,Wind SpeedMPH,Gust SpeedMPH,PrecipitationIn,Events,Conditions,WindDirDegrees,DateUTC
12:53 AM,63.0,55.9,78,29.97,10.0,West,4.6,-,N/A,,Clear,270,2013-10-03 04:53:00
1:53 AM,57.0,54.0,89,29.99,10.0,Calm,Calm,-,N/A,,Clear,0,2013-10-03 05:53:00
2:53 AM,59.0,54.0,83,29.99,10.0,WNW,3.5,-,N/A,,Clear,290,2013-10-03 06:53:00
3:53 AM,57.9,54.0,87,30.00,10.0,Calm,Calm,-,N/A,,Clear,0,2013-10-03 07:53:00
4:53 AM,59.0,52.0,78,30.01,10.0,Calm,Calm,-,N/A,,Clear,0,2013-10-03 08:53:00
5:53 AM,51.1,48.0,89,30.02,10.0,Calm,Calm,-,N/A,,Clear,0,2013-10-03 09:53:00
6:53 AM,50.0,48.0,93,30.04,7.0,Calm,Calm,-,N/A,,Clear,0,2013-10-03 10:53:00
7:01 AM,48.2,48.2,100,30.04,1.8,Calm,Calm,-,N/A,,Clear,0,2013-10-03 11:01:00
7:09 AM,48.2,48.2,100,30.04,3.0,Calm,Calm,-,N/A,,Clear,0,2013-10-03 11:09:00
7:53 AM,60.1,52.0,75,30.05,10.0,Variable,3.5,-,N/A,,Clear,0,2013-10-03 11:53:00
8:53 AM,66.0,53.1,63,30.07,10.0,Variable,3.5,-,N/A,,Clear,0,2013-10-03 12:53:00
9:53 AM,71.1,51.1,49,30.08,10.0,North,3.5,-,N/A,,Clear,350,2013-10-03 13:53:00
10:53 AM,73.9,50.0,43,30.07,10.0,NNW,3.5,-,N/A,,Clear,340,2013-10-03 14:53:00
11:53 AM,75.9,48.0,37,30.07,10.0,WSW,3.5,-,N/A,,Clear,250,2013-10-03 15:53:00
12:53 PM,78.1,46.0,32,30.05,10.0,SSW,8.1,-,N/A,,Clear,210,2013-10-03 16:53:00
1:53 PM,79.0,45.0,30,30.03,10.0,SW,10.4,-,N/A,,Clear,220,2013-10-03 17:53:00
2:53 PM,78.1,45.0,31,30.01,10.0,WSW,10.4,-,N/A,,Clear,250,2013-10-03 18:53:00
3:53 PM,75.9,51.1,42,30.02,10.0,SW,9.2,-,N/A,,Clear,230,2013-10-03 19:53:00
4:53 PM,71.1,52.0,51,30.02,10.0,SSW,8.1,-,N/A,,Clear,200,2013-10-03 20:53:00
5:53 PM,64.9,53.1,65,30.02,10.0,SW,4.6,-,N/A,,Clear,220,2013-10-03 21:53:00
6:53 PM,63.0,51.1,65,30.03,10.0,SW,4.6,-,N/A,,Clear,230,2013-10-03 22:53:00
7:53 PM,60.1,51.1,72,30.04,10.0,WSW,3.5,-,N/A,,Clear,240,2013-10-03 23:53:00
8:53 PM,53.1,51.1,93,30.05,10.0,Calm,Calm,-,N/A,,Clear,0,2013-10-04 00:53:00
9:53 PM,53.1,51.1,93,30.06,10.0,Calm,Calm,-,N/A,,Clear,0,2013-10-04 01:53:00
10:53 PM,53.1,50.0,89,30.07,10.0,SSW,4.6,-,N/A,,Clear,200,2013-10-04 02:53:00